Houghton Lake, MI

6:48 PM EDT on May 26, 2017 (GMT -0400)
Roscommon County

Weather History for KHTL - October, 2012

Change the Weather History Date:

Saturday, October 6, 2012

  Actual Average Record
Temperature  
Mean Temperature 42 °F 49 °F  
Max Temperature 48 °F 60 °F 83 °F (1963)
Min Temperature 35 °F 39 °F 16 °F (1923)
Degree Days  
Heating Degree Days 23 16  
Month to date heating degree days 76 89  
Since 1 July heating degree days 379 470  
Cooling Degree Days 0 0  
Month to date cooling degree days 0 0  
Year to date cooling degree days 547 285  
Moisture  
Dew Point 34 °F    
Average Humidity 73    
Maximum Humidity 92    
Minimum Humidity 53    
Precipitation  
Precipitation 0.04 in 0.09 in 3.47 in (1998)
Month to date precipitation 0.28 0.54  
Year to date precipitation 26.41 22.76  
Snow  
Snow T in 0.00 in 0.70 in (1964)
Month to date snowfall T 0.0  
Since 1 July snowfall T 0.0  
Snow Depth 0.00 in    
Sea Level Pressure  
Sea Level Pressure 29.98 in    
Wind  
Wind Speed 11 mph (WNW)    
Max Wind Speed 21 mph    
Max Gust Speed 30 mph    
Visibility 10 miles    
Events Rain    
T = Trace of Precipitation, MM = Missing Value Source: NWS Daily Summary

Daily Weather History Graph

Daily Weather History Graph

Search for Another Location

Airport or City:

Trip Planner

Search our weather history database for the weather conditions in past years. The results will help you decide how hot, cold, wet, or windy it might be!

Date:

Astronomy

Oct. 06, 2012 Rise Set
Actual Time 7:43 AM EDT 7:09 PM EDT
Civil Twilight 7:14 AM EDT 7:38 PM EDT
Nautical Twilight 6:40 AM EDT 8:11 PM EDT
Astronomical Twilight 6:06 AM EDT 8:45 PM EDT
Moon 11:14 PM EDT (10/6) 1:47 PM EDT (10/6)
Length of Visible Light 12h 24m
Length of Day
11h 26m
Waning Gibbous, 65% of the Moon is Illuminated
Oct 6
Waning Gibbous
Oct 8
Last Quarter
Oct 15
New
Oct 21
First Quarter
Oct 29
Full

Hourly Weather History & Observations

Time (EDT) Temp. Windchill Dew Point Humidity Pressure Visibility Wind Dir Wind Speed Gust Speed Precip Events Conditions
12:53 AM 46.9 °F - 30.9 °F 54% 29.89 in 10.0 mi WNW 15.0 mph 23.0 mph N/A   Overcast
1:53 AM 45.0 °F 37.9 °F 28.9 °F 53% 29.89 in 10.0 mi West 16.1 mph 25.3 mph N/A   Overcast
2:53 AM 44.1 °F 36.5 °F 28.9 °F 55% 29.90 in 10.0 mi WNW 17.3 mph 25.3 mph N/A   Overcast
3:53 AM 43.0 °F 36.0 °F 28.9 °F 58% 29.89 in 10.0 mi West 13.8 mph 23.0 mph N/A   Overcast
4:53 AM 41.0 °F 33.9 °F 30.9 °F 67% 29.89 in 10.0 mi WNW 12.7 mph - N/A   Overcast
5:53 AM 41.0 °F 34.3 °F 30.9 °F 67% 29.89 in 10.0 mi West 11.5 mph - N/A   Overcast
6:53 AM 41.0 °F 34.7 °F 32.0 °F 70% 29.89 in 10.0 mi WSW 10.4 mph 20.7 mph N/A   Overcast
7:53 AM 41.0 °F 33.5 °F 34.0 °F 76% 29.91 in 10.0 mi WSW 13.8 mph 23.0 mph N/A   Mostly Cloudy
8:53 AM 41.0 °F 33.9 °F 35.1 °F 79% 29.93 in 10.0 mi West 12.7 mph 20.7 mph 0.00 in   Overcast
9:02 AM 41.0 °F 33.5 °F 35.6 °F 81% 29.91 in 10.0 mi West 13.8 mph 26.5 mph 0.00 in Rain Light Rain
9:53 AM 42.1 °F 34.2 °F 34.0 °F 73% 29.94 in 10.0 mi WNW 16.1 mph 23.0 mph 0.00 in   Mostly Cloudy
10:53 AM 44.1 °F 37.4 °F 34.0 °F 68% 29.96 in 10.0 mi WNW 13.8 mph 27.6 mph N/A   Overcast
11:53 AM 44.1 °F 37.7 °F 34.0 °F 68% 29.96 in 8.0 mi NW 12.7 mph 25.3 mph 0.00 in Rain Light Rain
12:37 PM 42.8 °F 34.8 °F 37.4 °F 81% 29.96 in 10.0 mi WNW 17.3 mph 21.9 mph 0.03 in   Overcast
12:53 PM 44.1 °F 37.4 °F 37.9 °F 79% 29.98 in 10.0 mi WNW 13.8 mph - 0.03 in   Mostly Cloudy
1:14 PM 44.6 °F 37.4 °F 35.6 °F 71% 29.96 in 10.0 mi West 16.1 mph 23.0 mph 0.00 in Rain Light Rain
1:33 PM 46.4 °F 40.4 °F 35.6 °F 66% 29.96 in 10.0 mi West 13.8 mph 24.2 mph 0.00 in   Mostly Cloudy
1:53 PM 43.0 °F 37.7 °F 37.0 °F 80% 29.99 in 10.0 mi NW 9.2 mph - 0.00 in Rain Light Rain
2:05 PM 44.6 °F 38.1 °F 37.4 °F 76% 29.97 in 10.0 mi NW 13.8 mph - 0.00 in   Mostly Cloudy
2:14 PM 44.6 °F 37.8 °F 35.6 °F 71% 29.97 in 10.0 mi NNW 15.0 mph 23.0 mph 0.00 in   Mostly Cloudy
2:53 PM 43.0 °F 36.8 °F 35.1 °F 74% 30.01 in 10.0 mi West 11.5 mph 26.5 mph 0.00 in   Overcast
3:53 PM 42.1 °F 35.7 °F 36.0 °F 79% 30.03 in 10.0 mi NW 11.5 mph - 0.00 in Rain Light Rain
4:53 PM 46.9 °F - 34.0 °F 61% 30.02 in 10.0 mi WNW 13.8 mph 26.5 mph 0.00 in   Scattered Clouds
5:53 PM 43.0 °F 36.8 °F 34.0 °F 71% 30.05 in 10.0 mi NW 11.5 mph - N/A   Scattered Clouds
6:50 PM 41.0 °F 34.7 °F 33.8 °F 76% 30.05 in 10.0 mi NW 10.4 mph - N/A   Mostly Cloudy
6:53 PM 41.0 °F 35.8 °F 34.0 °F 76% 30.08 in 10.0 mi NW 8.1 mph - N/A   Mostly Cloudy
7:24 PM 39.2 °F 34.2 °F 35.6 °F 87% 30.06 in 10.0 mi NW 6.9 mph - 0.01 in   Mostly Cloudy
7:53 PM 37.9 °F 31.5 °F 34.0 °F 86% 30.10 in 10.0 mi WNW 9.2 mph - 0.01 in   Partly Cloudy
8:53 PM 37.9 °F 34.4 °F 34.0 °F 86% 30.12 in 10.0 mi WNW 4.6 mph - N/A   Overcast
9:53 PM 36.0 °F 32.1 °F 33.1 °F 89% 30.12 in 10.0 mi WNW 4.6 mph - N/A   Partly Cloudy
10:53 PM 37.9 °F 32.7 °F 34.0 °F 86% 30.13 in 10.0 mi WNW 6.9 mph - N/A   Overcast
11:53 PM 37.0 °F 32.4 °F 34.0 °F 89% 30.14 in 10.0 mi WNW 5.8 mph - N/A   Overcast